Regional Weather Roundup
Issued by NWS Northern Indiana

Home | Current Version | Previous Version | Graphics & Text | Print | Product List | Glossary On
Versions: 1 2 3 4 5 6 7 8 9 10 11 12 13 14 15 16 17 18 19 20 21 22 23 24 25 26 27 28 29 30 31 32 33 34 35 36 37 38 39 40 41 42 43 44 45 46 47 48 49 50
000
ASUS43 KIWX 220500
RWRIWX

KIWX WEATHER ROUNDUP
NATIONAL WEATHER SERVICE NORTHERN INDIANA
100 AM EDT TUE JUL 22 2014

NOTE: "FAIR" INDICATES FEW OR NO CLOUDS BELOW 12,000 FEET WITH NO
SIGNIFICANT WEATHER AND/OR OBSTRUCTIONS TO VISIBILITY.

* THESE STATIONS ARE NOT UNDER NWS QUALITY CONTROL. THEY ALSO MAY NOT
  REPORT WEATHER SUCH AS PRECIPITATION OR FOG.

INZ001>027-220600-
NORTHERN INDIANA

CITY           SKY/WX    TMP DP  RH WIND       PRES   REMARKS
VALPARAISO     CLEAR     70  64  81 S3        30.09S
SOUTH BEND     CLEAR     70  62  76 CALM      30.09F
GOSHEN         CLEAR     67  64  90 CALM      30.10S
ANGOLA*        CLEAR     66  64  94 CALM      30.11F
FORT WAYNE     CLEAR     69  63  81 CALM      30.11S
PERU/GRISSOM   CLEAR     69  67  93 CALM      30.10S

$$
INZ028>050-220600-
CENTRAL INDIANA

CITY           SKY/WX    TMP DP  RH WIND       PRES   REMARKS
LAFAYETTE      CLEAR     67  64  90 CALM      30.09S
KOKOMO*        CLEAR     64  63  94 CALM      30.11S
MUNCIE*        CLEAR     64  60  87 CALM      30.12S
INDIANAPOLIS   CLEAR     73  63  70 CALM      30.10S

$$
MIZ043>046-050>051-056>058-064>065-071>073-077>080-220600-
SOUTHWEST LOWER MICHIGAN

CITY           SKY/WX    TMP DP  RH WIND       PRES   REMARKS
BATTLE CREEK   CLEAR     69  63  81 CALM      30.10S
BENTON HARBOR  CLEAR     65  63  93 CALM      30.07F FOG
COLDWATER*     CLEAR     69  66  90 S3        30.10F
HILLSDALE*     CLEAR     69  65  84 SE5       30.12F
HOLLAND        CLEAR     69  65  86 CALM      30.09S
GRAND RAPIDS   CLEAR     70  66  87 SE6       30.09S
KALAMAZOO      CLEAR     70  64  81 CALM      30.09S
STURGIS*       CLEAR     64  64 100 CALM      30.10S
THREE RIVERS*  FAIR      68  66  94 CALM      30.10S

$$
OHZ001>008-015>018-024>025-220600-
NORTHWEST OHIO

CITY           SKY/WX    TMP DP  RH WIND       PRES   REMARKS
DEFIANCE       CLEAR     68  61  78 CALM      30.11S
FINDLAY        CLEAR     71  64  78 SE5       30.11S
TOLEDO EXPRESS CLEAR     65  60  84 CALM      30.11F
TOLEDO METCALF CLEAR     69  59  70 SE5       30.12S
LIMA           CLEAR     71  65  81 E6        30.12S

$$
&&



USA.gov is the U.S. government's official web portal to all federal, state and local government web resources and services.